Regional Weather Roundup
Issued by NWS

Home | Current Version | Previous Version | Text Only | Print | Product List | Glossary On
Versions: 1 2 3 4 5 6 7 8 9 10 11 12 13 14 15 16 17 18 19 20 21 22 23 24 25 26 27 28 29 30 31 32 33 34 35 36 37 38 39 40 41 42 43 44 45 46 47 48 49 50
000
ASHW40 PHFO 180243
RWRHI

WEATHER ROUNDUP FOR HAWAII
NATIONAL WEATHER SERVICE HONOLULU HI
400 PM HST TUE JAN 17 2017

THIS IS AN AUTOMATED REPORT THAT HAS NOT BEEN QUALITY CONTROLLED.

NOTE..."FAIR" INDICATES FEW OR NO CLOUDS BELOW 12,000 FEET WITH NO
SIGNIFICANT WEATHER AND/OR OBSTRUCTIONS TO VISIBILITY.

* - THESE SITES REPORT LIMITED FIELDS

HIZ001>004-180300-
KAUAI-NIIHAU-

CITY           SKY/WX    TMP DP  RH WIND       PRES   REMARKS
LIHUE APT      SUNNY     80  63  55 NE13      30.07S
PORT ALLEN*      N/A     82 N/A N/A NW7G14      N/A
POIPU*           N/A     81 N/A N/A NE8G15      N/A
PRINCEVILLE*     N/A     77 N/A N/A E9          N/A
KOKOLE POINT*  NOT AVBL
MOLOAA DAIRY*    N/A     79  63  57 E3G10       N/A
WAIMEA HTS*      N/A     82  64  54 SW6G12      N/A
PUU OPAE*      NOT AVBL
PUU LUA*       NOT AVBL
MAKAHA RIDGE*    N/A     75  59  57 SW3         N/A
$$

HIZ005>011-180300-
OAHU-

CITY           SKY/WX    TMP DP  RH WIND       PRES   REMARKS
HONOLULU       MOSUNNY   82  60  47 NE12      30.04R
KALAELOA       MOSUNNY   81  63  54 W9        30.05R
KANEOHE MCB    NOT AVBL
WHEELER FIELD  FAIR      78  63  60 E9        30.06
BELLOWS*         N/A    N/A N/A N/A NE7         N/A
KAHUKU*          N/A    N/A N/A N/A E8G15       N/A
WHEELER*         N/A    N/A N/A N/A NE8G14      N/A
WAIANAE HARBOR   N/A    N/A N/A N/A S10         N/A
DILLINGHAM*      N/A     84  63  48 MISG        N/A
KAHUKU TRN*      N/A     81  64  57 W7G17       N/A
KAWAILOA*        N/A     73  63  68 E12G18      N/A
KII*             N/A     79  63  57 E12         N/A
MAKUA RANGE*     N/A     82  63  51 W7G18       N/A
OAHU FOREST NW   N/A     70  59  68 E10G23      N/A
SCHOFIELD BRK*   N/A     81  63  54 MISG        N/A
SCHOFIELD S*   NOT AVBL
WAIANAE VLY*     N/A     81  64  57 SE3G12      N/A
KUAOKALA*        N/A     72   5   7 N12G22      N/A
HONOULIUULI*   NOT AVBL
MOKUOLOE IS*   NOT AVBL
PALEHUA*         N/A     72  61  68 E3G10       N/A
WAIAWA PHB*    NOT AVBL
$$

HIZ012>013-180300-
MOLOKAI-

CITY           SKY/WX    TMP DP  RH WIND       PRES   REMARKS
MOLOKAI AIRPT  MOSUNNY   82  66  58 N10G18    30.05R
KALAUPAPA      NOT AVBL
MAKAPULAPAI*     N/A     75  68  78 E13G20      N/A
MOLOKAI 1*       N/A     66  63  88 NW1         N/A
PUU ALII*        N/A     68  62  80 NE2         N/A
$$

HIZ016-180300-
KAHOOLAWE-

CITY           SKY/WX    TMP DP  RH WIND       PRES   REMARKS
KAHOOLAWE*       N/A     72 N/A N/A N1          N/A
HAKIOAWA*        N/A     74  66  75 MISG      30.47R
HONOKANAIA*      N/A     79  69  70 E14G24    29.96F
KANELOA*         N/A     73  66  78 E18G26    30.09
KEALIALALO*    NOT AVBL
LUA MAKIKA*    NOT AVBL
$$

HIZ014>015-180300-
LANAI-

CITY           SKY/WX    TMP DP  RH WIND       PRES   REMARKS
LANAI CITY     CLOUDY    71  65  81 NW6       30.10R
LANAI 1*       NOT AVBL
$$

HIZ017>028-180300-
MAUI-

CITY           SKY/WX    TMP DP  RH WIND       PRES   REMARKS
KAHULUI        MOSUNNY   80  68  66 NE17G28   30.03R
KAPALUA-W MAUI PTSUNNY   73  68  83 N20       30.04S
HANA AIRPORT   PTSUNNY   73  70  88 E3        30.10R
HANA*            N/A     73 N/A N/A SE3G9       N/A
HALEAKALA SUMM   N/A     52   9  17 E29G41      N/A
MAALAEA BAY*     N/A     77 N/A N/A N16G28      N/A
HALEAKALA*     NOT AVBL
KAUPO GAP*       N/A     82  79  89 S6G13       N/A  HX  93
KULA 1*          N/A    N/A N/A N/A W6G12       N/A
$$

HIZ023>026-180300-
BIG ISLAND OF HAWAII COAST AND LOWER SLOPES-

CITY           SKY/WX    TMP DP  RH WIND       PRES   REMARKS
KAILUA KONA    CLOUDY    78  67  68 VRB5      29.99S
HILO           CLOUDY    75  70  83 SE13      30.04R
HONOKAA*         N/A     70 N/A N/A VRB1        N/A
KAWAIHAE MWT*  NOT AVBL
KAWAIHAE*        N/A     77 N/A N/A W3        30.01S
SOUTH POINT*     N/A     70 N/A N/A N12G18      N/A
UPOLU AIRPORT* NOT AVBL
KAMUELA*       MOCLDY    66  64  94 NE9G21    30.12R
HAKALAU*         N/A     72  14  11 W2G9        N/A
KALOKO-HONOKO*   N/A     81  66  61 W5        29.99S
PALI 2*          N/A     73  66  78 NE5G17      N/A
KEALAKOMO*       N/A     79  68  69 NE18G28     N/A
KAUPULEHU*       N/A     73  63  68 SE2G9       N/A
KAPAPALA*      NOT AVBL
LOWER KAHUKU*    N/A     63  63 100 E3G12       N/A
PUHE CS*         N/A     81  64  57 SW2         N/A
PUHO CS*         N/A     82  64  53 W3G9        N/A
PTA KEAMUKU*     N/A    N/A N/A N/A CALM        N/A
WAIKOLOA*        N/A     73  66  78 E7          N/A
$$

HIZ027>028-180300-
BIG ISLAND OF HAWAII INTERIOR AND SUMMMITS-

CITY           SKY/WX    TMP DP  RH WIND       PRES   REMARKS
BRADSHAW FIELD MOSUNNY   73  32  22 S20G25    30.28S
MK VISITOR CEN   N/A     57 -11   6 E13         N/A
MAUNA KEA*       N/A     34  -8  16 NE36        N/A  WCI  19
MAUNA LOA*       N/A    N/A N/A N/A MISG        N/A
MAUNA LOA 1*   NOT AVBL
PTA KIPUKA*      N/A     75  63  64 NW9G17      N/A
PTA RANGE 17*    N/A     64  57  77 W7G25       N/A
PTA WEST*        N/A     61  59  94 NW3         N/A
NENE CABIN*      N/A     63  37  39 E9G21       N/A
AHUMOA*          N/A     68  51  55 NW3G14      N/A
PTA PORTABLE*  NOT AVBL
PUU MALI*        N/A     70 N/A N/A E17G29      N/A
$$

HIC003-180300-
NORTHWEST ISLANDS-

CITY           SKY/WX    TMP DP  RH WIND       PRES   REMARKS
MIDWAY ISLAND  CLOUDY    75  70  83 S16       29.84F
MIDWAY NOS*      N/A     73 N/A N/A MISG      29.83F
FRENCH FRIGATE NOT AVBL
$$

PHZ110>124-180-180300-
BUOY REPORTS

STATION/POSITION TIME  TEMP    WIND        PRES    WAVE   SWELL
                       AIR SEA DIR/SP/G            HT/PER HT/DIR
                 (UTC) (F)     (DEG/KT/KT) (MB)    (FT/S) (FT/D)
BUOY 51001       0110   75 76  180/  2/  4 1017.8
BUOY 51101       0150   75 77  160/  2/  4 1018.4F   8/11   7/300
BUOY 51100       NOT AVBL
BUOY 51002       0110   78      70/ 17/ 21 1014.5
BUOY 51003       0050   77 78   50/ 10/ 12 1016.0    5/11   5/310
BUOY 51004       0050   71 77   80/ 16/ 17 1014.9    8/10   7/110
BARBERS PT BUOY  NOT AVBL
WAIMEA BAY BUOY  0102      76                N/A     5/11   3/320
KAILUA BAY BUOY  0204      76                N/A     5/10   2/ 30
LANAI BUOY       0215      78                N/A     2/10   2/270
BARBERS PT 2     0209      77                N/A     4/10   3/300
PAUWELA MAUI     0209      76                N/A     6/12   3/330
HILO             0212      77                N/A     7/10   3/ 70
KANEOHE BAY BUOY 0206      76                N/A     4/11   2/360
HANALEI KAUAI    0222      77                N/A     7/12   5/310
KAHULUI HARBOR   0212   74 77   40/ 13/ 17 1017.3
HONOLULU HARBOR  0212   78 77   50/  5/  9 1018.0
KILO NALU        NOT AVBL
HILO HARBOR      0212   78 76  110/  7/ 10 1017.0
MOKUOLOE         0136   76 76   40/  5/  6 1017.9R
NAWILIWILI       0212   76 79   60/ 10/ 13 1017.8
WHOTS BUOY       NOT AVBL
BUOY 51028       NOT AVBL
$$

......................KEY........................................
  SKY/WX - SKY CONDITIONS/PRESENT WEATHER
  TMP    - TEMPERATURE IN FAHRENHEIT
  DWPT   - DEWPOINT IN FAHRENHEIT
  RH     - RELATIVE HUMIDITY IN PERCENT
  WIND   - DIRECTION AND SPEED /MPH FOR ISLANDS...KTS FOR BUOYS/
  PRES   - MEAN SEA LEVEL PRESSURE IN INCHES OF HG
  VSB    - VISIBILITY IN MILES
  HX     - HEAT INDEX
  WCI    - WIND CHILL INDEX
  VRB    - VARIABLE WIND DIRECTION
  N/A    - NOT AVAILABLE



USA.gov is the U.S. government's official web portal to all federal, state and local government web resources and services.